Home   Weather   Tempe   Past weeks
Flag for USA

Past Weather in Tempe, Arizona, USA — Yesterday and Last 2 Weeks

Now
85 °F

Scattered clouds.


Feels Like: 82 °F
Forecast: 84 / 54 °F
Wind: 8 mph from West

Location: Phoenix Sky Harbor International Airport

Current Time: Oct 21, 2019 at 4:46:12 pm

Latest Report: Oct 21, 2019 at 3:51 pm


Visibility: 10 mi

Pressure: 29.91 "Hg

Humidity: 10%

Dew Point: 22 °F

Location of TempeLocation

Past Weather in Tempe — Graph

°F

Tempe Temperature Yesterday

Maximum temperature yesterday: 86 °F (at 2:51 pm)
Minimum temperature yesterday: 58 °F (at 5:51 am)
Average temperature yesterday: 72 °F

High & Low Weather Summary for the Past Weeks

 TemperatureHumidityPressure
High98 °F (Oct 7, 2:51 pm)51% (Oct 15, 2:51 am)30.01 "Hg (Oct 15, 2:51 am)
Low58 °F (Oct 20, 5:51 am)4% (Oct 11, 10:51 am)29.54 "Hg (Oct 17, 5:51 pm)
Average78 °F23%29.79 "Hg
* Reported Oct 6 2:51 pm — Oct 21 2:51 pm, Tempe. Weather by CustomWeather, © 2019

Note: Actual official high and low records may vary slightly from our data, if they occured in-between our weather recording intervals... More about our weather records

Advertising

Tempe Weather History for the Previous 24 Hours

Scroll right to see more
 ConditionsComfort  
Time TempWeatherWind HumidityBarometerVisibility
2:51 pm
Mon, Oct 21
83 °FScattered clouds.3 mph8%29.91 "Hg10 mi
1:51 pm81 °FPassing clouds.3 mph8%29.93 "Hg10 mi
12:51 pm81 °FPassing clouds.6 mph7%29.96 "Hg10 mi
11:51 am80 °FPassing clouds.3 mph7%29.97 "Hg10 mi
10:51 am76 °FPassing clouds.No wind9%29.99 "Hg10 mi
9:51 am73 °FPassing clouds.5 mph13%29.99 "Hg10 mi
8:51 am68 °FScattered clouds.6 mph15%30.00 "Hg10 mi
7:51 am64 °FPassing clouds.No wind22%29.97 "Hg10 mi
6:51 am62 °FPassing clouds.No wind18%29.95 "Hg10 mi
5:51 am61 °FPassing clouds.3 mph17%29.92 "Hg10 mi
4:51 am61 °FClear.No wind20%29.89 "Hg10 mi
3:51 am60 °FClear.No wind22%29.88 "Hg10 mi
2:51 am62 °FClear.5 mph18%29.87 "Hg10 mi
1:51 am64 °FClear.6 mph15%29.87 "Hg10 mi
12:51 am67 °FClear.6 mph13%29.84 "Hg10 mi
11:51 pm
Sun, Oct 20
68 °FClear.3 mph13%29.85 "Hg10 mi
10:51 pm70 °FClear.6 mph12%29.85 "Hg10 mi
9:51 pm72 °FClear.8 mph14%29.83 "Hg10 mi
8:51 pm72 °FClear.7 mph17%29.80 "Hg10 mi
7:51 pm78 °FClear.8 mph12%29.79 "Hg10 mi
6:51 pm78 °FClear.5 mph14%29.78 "Hg10 mi
5:51 pm83 °FClear.8 mph10%29.77 "Hg10 mi
4:51 pm85 °FSunny.12 mph9%29.76 "Hg10 mi
Weather by CustomWeather, © 2019

See weather overview